KB6LA Weather Reports


Display with metric or nautical units.
time (UTC)temp
F
wind
direction
speed
MPH
gust
MPH
rain 1hr
in
rain 24hr
in
rain mn
in
humidity
%
barometer
mb
20260906084916 70 339 0.0 0.0 0.00 0.00 0.00 50 1011.1
20260906084317 70 339 0.0 0.0 0.00 0.00 0.00 50 1011.4
20260906083721 70 339 0.0 1.0 0.00 0.00 0.00 50 1011.4
20260906083116 71 335 0.0 1.0 0.00 0.00 0.00 50 1011.1
20260906082516 71 335 0.0 1.0 0.00 0.00 0.00 49 1011.4
20260906081316 70 335 0.0 1.0 0.00 0.00 0.00 50 1011.4
20260906080625 70 335 0.0 1.0 0.00 0.00 0.00 49 1011.4
20260906080121 70 335 1.0 1.0 0.00 0.00 0.00 49 1011.4
20260906075516 70 335 0.0 0.0 0.00 0.00 0.00 49 1011.4
20260906074320 71 335 0.0 1.0 0.00 0.00 0.00 49 1011.4
20260906073115 70 335 1.0 1.0 0.00 0.00 0.00 47 1011.4
20260906072519 70 335 0.0 0.0 0.00 0.00 0.00 47 1011.4
20260906071916 70 335 0.0 0.0 0.00 0.00 0.00 47 1011.4
20260906071318 70 335 0.0 1.0 0.00 0.00 0.00 47 1011.4
20260906064316 71 338 0.0 0.0 0.00 0.00 0.00 49 1011.4
20260906063716 71 333 1.0 1.0 0.00 0.00 0.00 50 1011.4
20260906062518 71 331 0.0 0.0 0.00 0.00 0.00 50 1011.4
20260906061916 71 331 0.0 0.0 0.00 0.00 0.00 51 1011.4
20260906061322 71 331 0.0 0.0 0.00 0.00 0.00 51 1011.8
20260906060715 71 331 1.0 1.0 0.00 0.00 0.00 51 1011.4
20260906060117 71 330 0.0 1.0 0.00 0.00 0.00 51 1011.4
20260906055519 71 329 0.0 1.0 0.00 0.00 0.00 52 1011.4
20260906054917 71 328 1.0 1.0 0.00 0.00 0.00 51 1011.4
20260906054319 72 328 0.0 1.0 0.00 0.00 0.00 51 1011.8
20260906053723 72 328 0.0 0.0 0.00 0.00 0.00 57 1011.4
20260906053115 72 328 0.0 0.0 0.00 0.00 0.00 49 1011.4
20260906052516 72 328 0.0 1.0 0.00 0.00 0.00 49 1011.4
20260906051918 72 328 0.0 1.0 0.00 0.00 0.00 49 1011.8
20260906050730 72 329 0.0 0.0 0.00 0.00 0.00 51 1011.8
20260906050119 73 329 0.0 1.0 0.00 0.00 0.00 52 1011.8
20260906045517 73 327 0.0 0.0 0.00 0.00 0.00 54 1011.8
20260906044916 73 328 0.0 0.0 0.00 0.00 0.00 59 1011.8
20260906043717 73 323 0.0 0.0 0.00 0.00 0.00 60 1011.8
20260906043116 74 316 0.0 0.0 0.00 0.00 0.00 62 1011.8
20260906042524 74 325 1.0 1.0 0.00 0.00 0.00 64 1011.8
20260906041317 74 246 0.0 0.0 0.00 0.00 0.00 64 1011.8
20260906040719 74 246 0.0 0.0 0.00 0.00 0.00 64 1011.8
20260906040119 74 246 0.0 0.0 0.00 0.00 0.00 64 1011.4
20260906034316 74 252 1.0 1.0 0.00 0.00 0.00 66 1011.4
20260906033716 74 274 0.0 1.0 0.00 0.00 0.00 66 1011.4
20260906033118 74 277 1.0 1.0 0.00 0.00 0.00 65 1011.1
20260906032518 74 259 1.0 1.0 0.00 0.00 0.00 65 1011.1
20260906031916 74 232 2.0 2.0 0.00 0.00 0.00 64 1011.1
20260906031320 74 260 1.0 2.0 0.00 0.00 0.00 64 1011.1
20260906030716 74 276 1.0 1.0 0.00 0.00 0.00 66 1011.1
20260906030117 74 269 1.0 1.0 0.00 0.00 0.00 66 1010.7
20260906025520 75 241 1.0 2.0 0.00 0.00 0.00 65 1010.7
20260906024315 75 225 3.0 3.0 0.00 0.00 0.00 59 1011.1
20260906023115 76 233 2.0 2.0 0.00 0.00 0.00 52 1010.7
20260906022517 76 281 2.0 2.0 0.00 0.00 0.00 49 1011.1
20260906021919 76 233 2.0 3.0 0.00 0.00 0.00 47 1011.1
20260906021317 77 281 3.0 3.0 0.00 0.00 0.00 45 1010.7
20260906020715 77 266 4.0 4.0 0.00 0.00 0.00 46 1010.7
20260906020120 77 269 5.0 6.0 0.00 0.00 0.00 46 1011.1
20260906015516 77 300 3.0 4.0 0.00 0.00 0.00 46 1011.1
20260906014917 78 220 4.0 6.0 0.00 0.00 0.00 44 1011.1
20260906014323 78 297 3.0 4.0 0.00 0.00 0.00 45 1011.1
20260906013717 78 273 5.0 6.0 0.00 0.00 0.00 44 1011.1
20260906013116 78 258 6.0 7.0 0.00 0.00 0.00 49 1011.1
20260906012520 78 202 5.0 6.0 0.00 0.00 0.00 50 1011.1
20260906011915 78 213 5.0 7.0 0.00 0.00 0.00 52 1011.1
20260906011317 78 254 5.0 7.0 0.00 0.00 0.00 48 1011.1
20260906010722 79 235 4.0 4.0 0.00 0.00 0.00 47 1011.1
20260906010118 78 268 4.0 6.0 0.00 0.00 0.00 47 1011.1
20260906005516 79 239 6.0 8.0 0.00 0.00 0.00 47 1011.1
20260906004919 79 273 6.0 7.0 0.00 0.00 0.00 48 1011.1
20260906004318 80 277 4.0 4.0 0.00 0.00 0.00 47 1011.1
20260906003717 79 272 4.0 6.0 0.00 0.00 0.00 47 1011.1
20260906003118 79 278 5.0 6.0 0.00 0.00 0.00 49 1010.7
20260906002517 79 249 6.0 8.0 0.00 0.00 0.00 48 1011.1
20260906001916 80 231 5.0 7.0 0.00 0.00 0.00 51 1011.1
20260906000716 79 248 8.0 9.0 0.00 0.00 0.00 52 1011.1
20260906000119 80 239 4.0 7.0 0.00 0.00 0.00 50 1011.1
20260905234918 80 249 6.0 9.0 0.00 0.00 0.00 50 1010.7
20260905234317 80 253 4.0 4.0 0.00 0.00 0.00 53 1010.7
20260905233117 81 206 7.0 8.0 0.00 0.00 0.00 51 1010.7
20260905232517 81 260 6.0 8.0 0.00 0.00 0.00 52 1011.1
20260905231919 81 262 9.0 10.0 0.00 0.00 0.00 45 1010.7
20260905231318 80 231 6.0 8.0 0.00 0.00 0.00 52 1011.1
20260905230716 81 230 7.0 9.0 0.00 0.00 0.00 51 1011.1
20260905230121 81 258 8.0 10.0 0.00 0.00 0.00 50 1011.1
20260905225517 82 248 6.0 7.0 0.00 0.00 0.00 52 1011.1
20260905224918 83 239 9.0 11.0 0.00 0.00 0.00 47 1011.1
20260905224320 82 290 4.0 6.0 0.00 0.00 0.00 51 1011.1
20260905223719 81 214 6.0 7.0 0.00 0.00 0.00 44 1011.4
20260905223119 82 223 7.0 8.0 0.00 0.00 0.00 49 1011.4
20260905222521 83 246 8.0 8.0 0.00 0.00 0.00 44 1011.4
20260905221916 83 215 4.0 6.0 0.00 0.00 0.00 44 1011.4
20260905221317 82 214 10.0 11.0 0.00 0.00 0.00 43 1011.4
20260905220721 83 196 9.0 10.0 0.00 0.00 0.00 43 1011.8
20260905220118 83 231 9.0 10.0 0.00 0.00 0.00 42 1011.8
20260905215516 84 208 4.0 8.0 0.00 0.00 0.00 39 1011.4
20260905214921 84 224 7.0 10.0 0.00 0.00 0.00 42 1011.4
20260905214317 84 224 9.0 10.0 0.00 0.00 0.00 42 1011.8
20260905213717 84 288 3.0 3.0 0.00 0.00 0.00 41 1011.8
20260905213119 84 230 6.0 8.0 0.00 0.00 0.00 41 1011.8
20260905212517 83 264 6.0 7.0 0.00 0.00 0.00 44 1011.8
20260905211915 83 219 7.0 8.0 0.00 0.00 0.00 42 1011.8
20260905211321 81 279 4.0 4.0 0.00 0.00 0.00 50 1012.1
20260905210716 82 271 4.0 7.0 0.00 0.00 0.00 52 1012.1
20260905210116 81 246 6.0 7.0 0.00 0.00 0.00 51 1012.1
20260905205518 81 241 9.0 9.0 0.00 0.00 0.00 53 1012.1
20260905204917 80 197 7.0 9.0 0.00 0.00 0.00 56 1012.1
20260905204317 80 215 8.0 9.0 0.00 0.00 0.00 54 1012.4
20260905203719 80 264 7.0 8.0 0.00 0.00 0.00 58 1012.4
20260905202516 81 234 7.0 8.0 0.00 0.00 0.00 56 1012.4
20260905201918 81 209 6.0 7.0 0.00 0.00 0.00 54 1012.4
20260905201318 81 263 3.0 4.0 0.00 0.00 0.00 56 1012.4
20260905200716 81 211 6.0 8.0 0.00 0.00 0.00 56 1012.4
20260905200121 81 272 6.0 7.0 0.00 0.00 0.00 57 1012.4
20260905195517 81 233 7.0 9.0 0.00 0.00 0.00 55 1012.4
20260905194917 80 243 4.0 6.0 0.00 0.00 0.00 57 1012.8
20260905193722 80 229 8.0 9.0 0.00 0.00 0.00 58 1012.8
20260905192520 80 261 6.0 7.0 0.00 0.00 0.00 59 1012.8
20260905191918 79 228 8.0 8.0 0.00 0.00 0.00 60 1012.8
20260905191317 79 228 6.0 7.0 0.00 0.00 0.00 60 1012.8
20260905190718 80 200 6.0 7.0 0.00 0.00 0.00 60 1013.1
20260905190118 80 210 3.0 4.0 0.00 0.00 0.00 61 1013.1
20260905185516 80 242 5.0 8.0 0.00 0.00 0.00 58 1013.1
20260905184921 79 242 5.0 6.0 0.00 0.00 0.00 58 1013.4
20260905184317 79 218 4.0 6.0 0.00 0.00 0.00 61 1013.4
20260905183718 78 61 4.0 4.0 0.00 0.00 0.00 64 1013.4
20260905183122 78 242 6.0 7.0 0.00 0.00 0.00 64 1013.4
20260905182517 77 216 5.0 6.0 0.00 0.00 0.00 64 1013.4
20260905181915 77 274 3.0 4.0 0.00 0.00 0.00 66 1013.4
20260905180717 78 228 9.0 10.0 0.00 0.00 0.00 62 1013.4
20260905180118 79 221 5.0 8.0 0.00 0.00 0.00 60 1013.4
20260905175519 81 161 5.0 6.0 0.00 0.00 0.00 47 1013.4
20260905174316 79 12 1.0 1.0 0.00 0.00 0.00 53 1013.4
20260905173723 79 191 1.0 2.0 0.00 0.00 0.00 54 1013.4
20260905173117 78 350 1.0 1.0 0.00 0.00 0.00 53 1013.4
20260905172517 78 154 3.0 3.0 0.00 0.00 0.00 54 1013.4
20260905171919 78 256 2.0 2.0 0.00 0.00 0.00 54 1013.4
20260905171320 76 189 4.0 4.0 0.00 0.00 0.00 58 1013.4
20260905170716 77 183 6.0 7.0 0.00 0.00 0.00 56 1013.4
20260905170121 77 241 1.0 1.0 0.00 0.00 0.00 55 1013.4
20260905165516 78 161 3.0 3.0 0.00 0.00 0.00 57 1013.4
20260905164917 77 115 3.0 3.0 0.00 0.00 0.00 56 1013.1
20260905164319 76 158 1.0 1.0 0.00 0.00 0.00 60 1013.1
20260905163717 76 153 2.0 2.0 0.00 0.00 0.00 59 1013.1
20260905163117 76 41 1.0 1.0 0.00 0.00 0.00 61 1013.1
20260905161916 75 140 1.0 2.0 0.00 0.00 0.00 62 1013.1
20260905160719 75 80 3.0 3.0 0.00 0.00 0.00 65 1013.1
20260905160118 75 92 3.0 3.0 0.00 0.00 0.00 66 1012.8
20260905155517 74 27 0.0 1.0 0.00 0.00 0.00 69 1013.1
20260905154316 73 48 2.0 3.0 0.00 0.00 0.00 73 1013.1
20260905153123 73 356 0.0 0.0 0.00 0.00 0.00 74 1012.8
20260905152517 72 40 1.0 2.0 0.00 0.00 0.00 75 1012.8
20260905151918 72 62 0.0 0.0 0.00 0.00 0.00 77 1012.8
20260905151320 71 71 1.0 1.0 0.00 0.00 0.00 77 1013.1
20260905150716 70 33 1.0 1.0 0.00 0.00 0.00 81 1013.1
20260905150117 68 357 0.0 0.0 0.00 0.00 0.00 82 1012.8
20260905145520 67 356 0.0 0.0 0.00 0.00 0.00 84 1012.8
20260905144917 67 356 0.0 0.0 0.00 0.00 0.00 84 1012.8
20260905144319 66 356 0.0 0.0 0.00 0.00 0.00 85 1012.8
20260905143720 66 356 1.0 1.0 0.00 0.00 0.00 85 1012.8
20260905143119 65 356 1.0 1.0 0.00 0.00 0.00 86 1012.4
20260905142518 65 355 0.0 0.0 0.00 0.00 0.00 87 1012.4
20260905141919 65 354 0.0 0.0 0.00 0.00 0.00 88 1012.4
20260905141318 64 345 1.0 1.0 0.00 0.00 0.00 88 1012.4
20260905140716 63 339 0.0 0.0 0.00 0.00 0.00 88 1012.4
20260905140121 63 336 1.0 1.0 0.00 0.00 0.00 88 1012.4
20260905135517 63 335 0.0 1.0 0.00 0.00 0.00 88 1012.4
20260905134917 64 335 0.0 0.0 0.00 0.00 0.00 88 1012.4
20260905133717 64 1 1.0 1.0 0.00 0.00 0.00 88 1012.1
20260905132520 64 358 2.0 2.0 0.00 0.00 0.00 89 1011.8
20260905131916 64 13 2.0 2.0 0.00 0.00 0.00 89 1011.8
20260905131317 64 3 1.0 2.0 0.00 0.00 0.00 88 1011.8
20260905130720 64 352 0.0 1.0 0.00 0.00 0.00 89 1011.8
20260905130119 64 338 1.0 1.0 0.00 0.00 0.00 88 1011.8
20260905125517 64 343 0.0 0.0 0.00 0.00 0.00 88 1011.8
20260905124920 64 340 0.0 1.0 0.00 0.00 0.00 88 1011.8
20260905124318 64 336 0.0 0.0 0.00 0.00 0.00 88 1011.8
20260905123718 64 335 1.0 1.0 0.00 0.00 0.00 88 1011.8
20260905123121 64 349 1.0 1.0 0.00 0.00 0.00 88 1011.8
20260905122523 64 354 2.0 2.0 0.00 0.00 0.00 88 1011.8
20260905121324 64 14 2.0 2.0 0.00 0.00 0.00 88 1011.8
20260905120716 64 340 0.0 1.0 0.00 0.00 0.00 88 1011.8
20260905120117 64 340 0.0 0.0 0.00 0.00 0.00 88 1011.8
20260905114919 64 344 1.0 2.0 0.00 0.00 0.00 88 1011.8
20260905114317 64 325 1.0 1.0 0.00 0.00 0.00 88 1011.8
20260905113720 63 336 1.0 1.0 0.00 0.00 0.00 88 1011.8
20260905113116 63 338 0.0 0.0 0.00 0.00 0.00 88 1011.8
20260905111923 64 336 0.0 1.0 0.00 0.00 0.00 87 1011.8
20260905111318 64 332 1.0 1.0 0.00 0.00 0.00 87 1012.1
20260905110717 63 330 1.0 1.0 0.00 0.00 0.00 87 1012.1
20260905110120 64 334 1.0 2.0 0.00 0.00 0.00 87 1012.1
20260905105518 64 335 0.0 0.0 0.00 0.00 0.00 87 1012.1
20260905104917 64 335 0.0 0.0 0.00 0.00 0.00 87 1012.1
20260905104319 64 335 0.0 0.0 0.00 0.00 0.00 87 1012.1
20260905103120 64 333 1.0 1.0 0.00 0.00 0.00 87 1012.1
20260905102520 64 338 0.0 0.0 0.00 0.00 0.00 87 1012.1
20260905101916 64 346 0.0 0.0 0.00 0.00 0.00 86 1012.1
20260905101316 65 345 0.0 0.0 0.00 0.00 0.00 86 1012.1
20260905100118 65 334 0.0 0.0 0.00 0.00 0.00 86 1012.1
20260905095517 65 359 3.0 3.0 0.00 0.00 0.00 86 1012.1
20260905094924 65 16 3.0 3.0 0.00 0.00 0.00 85 1012.1
20260905093718 65 17 2.0 3.0 0.00 0.00 0.00 85 1012.1
20260905093121 65 16 2.0 2.0 0.00 0.00 0.00 85 1012.1
20260905091320 65 338 1.0 2.0 0.00 0.00 0.00 84 1012.1
20260905090716 65 333 1.0 2.0 0.00 0.00 0.00 84 1012.1
20260905090117 65 336 0.0 1.0 0.00 0.00 0.00 83 1012.1
20260905085520 65 341 0.0 1.0 0.00 0.00 0.00 83 1012.1